loading
|
Showing default

BLUEWALKER 3, 53807

Orbit data source: Space-Track

BLUEWALKER 3, 53807 is a payload satellite owned by AST & Science (US) in LEO that was launched on Sun, 11 Sep 2022 UTC via an FALCON 9 launch vehicle from the Air Force Eastern Test Range (AFETR). Payloads include a variety of satellites, spacecraft, and rockets equipped with specific instruments for various scientific and technological missions. These include communications satellites like Starlink; space stations such as the ISS; scientific satellites like the Hubble; Earth observation satellites from companies like Planet Labs, Umbra, and HawkEye 360; GPS; miniature CubeSats for education and research; and military/defense satellites.

Loading next visibility...
Next conjunction unknown
Loading greatness...
BLUEWALKER 3 details
Identifier
53807, 2022-111AL
Orbit
LEO
Last TLE update23 hours ago
Origin
Flag of USAST & Science (US)
ManufacturerAST & Science
MissionPartially operational Commercial Communications
Bus & MotorBW3, Unknown motor
Mass1,500 kg wet, 1,500 kg dry
Launch date (UTC)
2022-09-11 (2 years ago)
Launch vehicle
FALCON 9
Launch site
Air Force Eastern Test Range (AFETR)
Object type
Payload
Rocket body
Debris
Shape & HBRBox + 1 Plate, 9 m
Radar Cross Section1.500 m², Medium (>0.1 m² and < 1m²)

Expand to show TLE details & history

TLE from 23 hours ago
0 BLUEWALKER 3
1 53807U 22111AL  24287.63258388  .00014443  00000-0  51498-3 0  9992
2 53807  53.2368   6.7634 0008976  92.1881 268.0148 15.29130722116332
Epoch: 2024-10-13T15:10Z
Definitive object data (Epoch: 2024-10-13T15:10:55.247Z)
Latitude-0.00002°
Longitude116.3619°
Altitude479.536 km
Speed7.627 km/s
True Right ascension00h 27m 03s
True Declination0° 00' 00"
Sunlit
Object was in full shadow at TLE epoch
Predictive object data (real-time)
Latitude-11.11856°
Longitude-59.64174°
Altitude482.259 km
Speed7.624 km/s
Apparent Right ascension15h 39m 47s
Apparent Declination-40° 49' 48"
Sunlit
Object is in daylight
Predictive observer data (real-time)
Local Sidereal Time08:33:06
Azimuth116.549° SE
Elevation-35.876°
Doppler factor1
Orbital elements
Apogee484.808 km
Perigee472.499 km
Semi-major axis6,856.791 km
Eccentricity0.0008976
Inclination53.2368°
RAAN6.7634°
Arg. of periapsis92.1881°
True anomaly267.91201°
Mean anomaly268.0148°
Eccentric anomaly267.9634°
Mean motion3.82263 °/min
BSTAR0.00051498
Period94.18 mins
No data available

BLUEWALKER 3 Visibility forecast

Observer location: 39.9160978°, -105.1181434

Span
Click to sort rows by Start time (UTC) header in descending order
Start Az.
Max El. time (UTC)
Max El. Az.
Max El.
End time (UTC)
End Az.
6 mins2024-10-14 15:13:08.873Z303.352° NW2024-10-14 15:16:08.873Z247.631° W40.998°2024-10-14 15:19:08.873Z144.938° SSE
6 mins2024-10-15 08:10:08.873Z246.472° WSW2024-10-15 08:12:08.873Z286.163° WNW38.829°2024-10-15 08:16:08.873Z43.466° NE
5 mins2024-10-15 13:07:08.873Z338.183° N2024-10-15 13:09:08.873Z13.47° NNE18.65°2024-10-15 13:12:08.873Z71.372° E